TimeCST,TemperatureF,Dew PointF,Humidity,Sea Level PressureIn,VisibilityMPH,Wind Direction,Wind SpeedMPH,Gust SpeedMPH,PrecipitationIn,Events,Conditions,WindDirDegrees,DateUTC
12:15 AM,23.0,19.4,86,30.03,10.0,SW,8.1,-,N/A,,Clear,220,2012-11-29 06:15:00
12:35 AM,23.0,19.4,86,30.02,10.0,SW,9.2,-,N/A,,Clear,220,2012-11-29 06:35:00
12:55 AM,23.0,19.4,86,30.02,10.0,WSW,9.2,-,N/A,,Clear,250,2012-11-29 06:55:00
1:15 AM,23.0,19.4,86,30.02,10.0,WSW,8.1,-,N/A,,Clear,240,2012-11-29 07:15:00
1:35 AM,23.0,19.4,86,30.00,10.0,West,9.2,-,N/A,,Clear,260,2012-11-29 07:35:00
1:55 AM,23.0,19.4,86,29.99,10.0,West,9.2,-,N/A,,Clear,270,2012-11-29 07:55:00
2:15 AM,23.0,19.4,86,29.99,10.0,West,10.4,-,N/A,,Clear,270,2012-11-29 08:15:00
2:35 AM,26.6,21.2,80,29.99,10.0,West,12.7,-,N/A,,Clear,280,2012-11-29 08:35:00
2:55 AM,28.4,21.2,74,29.99,10.0,WNW,12.7,-,N/A,,Clear,290,2012-11-29 08:55:00
3:15 AM,28.4,21.2,74,29.99,10.0,NW,11.5,-,N/A,,Clear,310,2012-11-29 09:15:00
3:35 AM,28.4,21.2,74,29.98,10.0,WNW,12.7,-,N/A,,Clear,290,2012-11-29 09:35:00
3:55 AM,28.4,21.2,74,29.98,10.0,WNW,10.4,-,N/A,,Clear,290,2012-11-29 09:55:00
4:15 AM,28.4,21.2,74,29.98,10.0,WNW,11.5,-,N/A,,Clear,300,2012-11-29 10:15:00
4:35 AM,28.4,21.2,74,29.98,10.0,WNW,11.5,-,N/A,,Clear,290,2012-11-29 10:35:00
4:55 AM,28.4,21.2,74,29.98,10.0,WNW,11.5,-,N/A,,Clear,300,2012-11-29 10:55:00
5:15 AM,28.4,19.4,69,29.97,10.0,WNW,12.7,-,N/A,,Clear,300,2012-11-29 11:15:00
5:35 AM,28.4,19.4,69,29.96,10.0,WNW,13.8,-,N/A,,Clear,300,2012-11-29 11:35:00
5:55 AM,28.4,19.4,69,29.96,10.0,WNW,13.8,-,N/A,,Clear,300,2012-11-29 11:55:00
6:15 AM,28.4,19.4,69,29.96,10.0,West,5.8,-,N/A,,Clear,280,2012-11-29 12:15:00
6:35 AM,26.6,19.4,74,29.96,10.0,West,8.1,-,N/A,,Clear,280,2012-11-29 12:35:00
6:55 AM,23.0,17.6,80,29.96,10.0,West,8.1,-,N/A,,Clear,280,2012-11-29 12:55:00
7:15 AM,24.8,17.6,74,29.97,10.0,WNW,9.2,-,N/A,,Clear,290,2012-11-29 13:15:00
7:35 AM,26.6,19.4,74,29.98,10.0,WNW,9.2,-,N/A,,Clear,290,2012-11-29 13:35:00
7:55 AM,28.4,19.4,69,29.98,10.0,NW,10.4,-,N/A,,Clear,310,2012-11-29 13:55:00
8:15 AM,30.2,21.2,69,29.99,10.0,WNW,9.2,-,N/A,,Clear,290,2012-11-29 14:15:00
8:35 AM,32.0,21.2,64,30.01,10.0,WNW,11.5,-,N/A,,Clear,300,2012-11-29 14:35:00
8:55 AM,32.0,21.2,64,30.02,10.0,WNW,12.7,-,N/A,,Clear,300,2012-11-29 14:55:00
9:15 AM,37.4,21.2,52,30.02,10.0,WNW,11.5,-,N/A,,Clear,300,2012-11-29 15:15:00
9:35 AM,41.0,21.2,45,30.01,10.0,NW,10.4,-,N/A,,Clear,310,2012-11-29 15:35:00
9:55 AM,46.4,23.0,40,30.02,10.0,NW,9.2,-,N/A,,Clear,310,2012-11-29 15:55:00
10:15 AM,50.0,23.0,35,30.02,10.0,NW,3.5,-,N/A,,Clear,320,2012-11-29 16:15:00
10:35 AM,53.6,23.0,30,30.01,10.0,NW,3.5,-,N/A,,Clear,310,2012-11-29 16:35:00
10:55 AM,55.4,24.8,31,30.01,10.0,Calm,Calm,-,N/A,,Clear,0,2012-11-29 16:55:00
11:15 AM,59.0,26.6,29,30.01,10.0,Calm,Calm,-,N/A,,Clear,0,2012-11-29 17:15:00
11:35 AM,60.8,26.6,27,30.00,10.0,Calm,Calm,-,N/A,,Clear,0,2012-11-29 17:35:00
11:55 AM,60.8,26.6,27,29.99,10.0,Calm,Calm,-,N/A,,Clear,0,2012-11-29 17:55:00
12:15 PM,62.6,24.8,24,29.98,10.0,Calm,Calm,-,N/A,,Clear,0,2012-11-29 18:15:00
12:35 PM,62.6,24.8,24,29.97,10.0,Calm,Calm,-,N/A,,Clear,0,2012-11-29 18:35:00
12:55 PM,64.4,26.6,24,29.96,10.0,SSE,4.6,-,N/A,,Clear,160,2012-11-29 18:55:00
1:15 PM,66.2,26.6,23,29.95,10.0,South,3.5,-,N/A,,Clear,180,2012-11-29 19:15:00
1:35 PM,68.0,26.6,21,29.95,10.0,South,4.6,-,N/A,,Clear,180,2012-11-29 19:35:00
1:55 PM,68.0,26.6,21,29.95,10.0,Calm,Calm,-,N/A,,Clear,0,2012-11-29 19:55:00
2:15 PM,68.0,26.6,21,29.94,10.0,Calm,Calm,-,N/A,,Clear,0,2012-11-29 20:15:00
2:35 PM,69.8,26.6,20,29.93,10.0,Calm,Calm,-,N/A,,Clear,0,2012-11-29 20:35:00
2:55 PM,69.8,26.6,20,29.93,10.0,SSW,3.5,-,N/A,,Clear,200,2012-11-29 20:55:00
3:15 PM,69.8,26.6,20,29.93,10.0,SSW,5.8,-,N/A,,Clear,210,2012-11-29 21:15:00
3:35 PM,69.8,26.6,20,29.93,10.0,South,4.6,-,N/A,,Clear,190,2012-11-29 21:35:00
3:55 PM,68.0,26.6,21,29.93,10.0,SSW,5.8,-,N/A,,Clear,200,2012-11-29 21:55:00
4:15 PM,68.0,26.6,21,29.93,10.0,South,5.8,-,N/A,,Clear,190,2012-11-29 22:15:00
4:35 PM,66.2,24.8,21,29.93,10.0,South,4.6,-,N/A,,Clear,190,2012-11-29 22:35:00
4:55 PM,64.4,23.0,21,29.95,10.0,South,4.6,-,N/A,,Clear,190,2012-11-29 22:55:00
5:15 PM,60.8,23.0,23,29.95,10.0,South,6.9,-,N/A,,Clear,190,2012-11-29 23:15:00
5:35 PM,57.2,23.0,27,29.95,10.0,SSW,9.2,-,N/A,,Clear,200,2012-11-29 23:35:00
5:55 PM,53.6,21.2,28,29.96,10.0,SSW,6.9,-,N/A,,Clear,200,2012-11-29 23:55:00
6:15 PM,50.0,19.4,30,29.97,10.0,South,3.5,-,N/A,,Clear,180,2012-11-30 00:15:00
6:35 PM,46.4,17.6,32,29.97,10.0,SW,6.9,-,N/A,,Clear,220,2012-11-30 00:35:00
6:55 PM,44.6,19.4,37,29.98,10.0,SSW,8.1,-,N/A,,Clear,210,2012-11-30 00:55:00
7:15 PM,42.8,19.4,39,29.98,10.0,SW,8.1,-,N/A,,Clear,220,2012-11-30 01:15:00
7:35 PM,41.0,19.4,42,29.98,10.0,SSW,10.4,-,N/A,,Clear,210,2012-11-30 01:35:00
7:55 PM,41.0,19.4,42,29.98,10.0,SW,9.2,-,N/A,,Clear,220,2012-11-30 01:55:00
8:15 PM,41.0,19.4,42,29.98,10.0,SW,6.9,-,N/A,,Clear,220,2012-11-30 02:15:00
8:35 PM,42.8,19.4,39,29.99,10.0,SW,8.1,-,N/A,,Clear,230,2012-11-30 02:35:00
8:55 PM,41.0,17.6,39,29.99,10.0,SW,9.2,-,N/A,,Clear,230,2012-11-30 02:55:00
9:15 PM,35.6,15.8,44,30.00,10.0,WSW,8.1,-,N/A,,Clear,250,2012-11-30 03:15:00
9:35 PM,35.6,17.6,48,29.99,10.0,WSW,9.2,-,N/A,,Clear,240,2012-11-30 03:35:00
9:55 PM,35.6,15.8,44,30.00,10.0,WSW,9.2,-,N/A,,Clear,250,2012-11-30 03:55:00
10:15 PM,37.4,17.6,45,30.00,10.0,WSW,10.4,-,N/A,,Clear,250,2012-11-30 04:15:00
10:35 PM,33.8,15.8,48,30.02,10.0,NW,16.1,20.7,N/A,,Clear,320,2012-11-30 04:35:00
10:55 PM,37.4,15.8,41,30.03,10.0,WNW,13.8,-,N/A,,Clear,300,2012-11-30 04:55:00
11:15 PM,39.2,15.8,39,30.03,10.0,WNW,11.5,-,N/A,,Clear,290,2012-11-30 05:15:00
11:35 PM,35.6,14.0,41,30.03,10.0,West,8.1,-,N/A,,Clear,280,2012-11-30 05:35:00
11:55 PM,37.4,14.0,38,30.03,10.0,NW,6.9,-,N/A,,Clear,310,2012-11-30 05:55:00